모두
Jever Air Base Airport (Schortens) ETNJ 기상
There is no TAF data available at ETNJ. Showing TAF data for EDWE (29 mi 서).
EME 터미널 지역 예측(ETNJ에 대한 데이터 없음)
| Date | Time (CEST) | Flight Rules | Wind Dir. | Speed | Type | Height AGL (ft) | Visibility | Remarks | ||||||
|---|---|---|---|---|---|---|---|---|---|---|---|---|---|---|
| 02-5월 | 22:00 | VFR | 350° | 2 kt | Clouds and Visibility are OK | >= 6 miles | Becoming. | |||||||
| 02-5월 | 21:00 | VFR | 350° | 2 kt | Clouds and Visibility are OK | >= 6 miles | Becoming. | |||||||
| 02-5월 | 20:00 | VFR | 350° | 2 kt | Clouds and Visibility are OK | >= 6 miles | Becoming. | |||||||
| 02-5월 | 19:00 | VFR | 290° | 8 kt | Clouds and Visibility are OK | >= 6 miles | ||||||||
| 02-5월 | 18:00 | VFR | 290° | 8 kt | Clouds and Visibility are OK | >= 6 miles | ||||||||
There is no METAR data available at ETNJ. Showing METAR data for ETNT (9 mi 서).
최근 ETNT METAR 이력(ETNJ에 대한 데이터 없음)
| Date | Time (CEST) | Flight Rules | Wind Dir. | Speed | Type | Height AGL (ft) | Visibility | Temp (°C) | Temp (°F) | Dew Point (°C) | Dew Point (°F) | Rel. Humid. | Pressure | Density Altitude | Remarks |
|---|---|---|---|---|---|---|---|---|---|---|---|---|---|---|---|
| 02-5월 | 18:20 | VFR | 310° | 4 kt | 10000 meters | 21° | 69° | 11° | 51° | 53% | 1014 mb | 723 ft | |||
| 02-5월 | 17:20 | VFR | 290° | 7 kt | 10000 meters | 21° | 69° | 11° | 51° | 53% | 1015 mb | 693 ft | |||
| 02-5월 | 16:20 | VFR | 300° | 8 kt | 10000 meters | 23° | 73° | 7° | 44° | 36% | 1015 mb | 933 ft | |||
| 02-5월 | 15:20 | VFR | 300° | 9 kt | 10000 meters | 24° | 75° | 8° | 46° | 36% | 1015 mb | 1,053 ft | |||
| 02-5월 | 14:20 | VFR | 230° | 9 kt | 10000 meters | 24° | 75° | 2° | 35° | 24% | 1015 mb | 1,053 ft | |||
| 02-5월 | 13:20 | VFR | 230° | 9 kt | 10000 meters | 24° | 75° | 0° | 32° | 20% | 1016 mb | 1,024 ft | |||
| 02-5월 | 12:20 | VFR | 210° | 10 kt | 10000 meters | 24° | 75° | 1° | 33° | 22% | 1016 mb | 1,024 ft | |||
| 02-5월 | 11:20 | VFR | 200° | 7 kt | 10000 meters | 22° | 71° | 5° | 41° | 33% | 1017 mb | 754 ft | |||
| 02-5월 | 10:20 | VFR | 210° | 6 kt | 10000 meters | 20° | 68° | 5° | 41° | 37% | 1017 mb | 514 ft | |||
| 02-5월 | 09:20 | VFR | 200° | 8 kt | 10000 meters | 17° | 62° | 5° | 41° | 45% | 1018 mb | 124 ft | |||
| 02-5월 | 08:20 | VFR | 180° | 6 kt | 10000 meters | 15° | 59° | 5° | 41° | 51% | 1018 mb | -116 ft | |||
| 02-5월 | 07:20 | VFR | 190° | 4 kt | 10000 meters | 12° | 53° | 5° | 41° | 62% | 1018 mb | -476 ft | |||
| 02-5월 | 06:20 | VFR | 170° | 2 kt | 10000 meters | 9° | 48° | 5° | 41° | 76% | 1018 mb | -836 ft | |||
| 02-5월 | 05:20 | VFR | 160° | 3 kt | 10000 meters | 11° | 51° | 5° | 41° | 66% | 1018 mb | -596 ft | |||
| 02-5월 | 04:20 | VFR | Variable | 3 kt | 10000 meters | 11° | 51° | 5° | 41° | 66% | 1019 mb | -625 ft | |||
| 02-5월 | 03:20 | VFR | 140° | 2 kt | 10000 meters | 10° | 50° | 5° | 41° | 71% | 1020 mb | -775 ft | |||
| 02-5월 | 02:20 | VFR | 180° | 4 kt | 10000 meters | 14° | 57° | 5° | 41° | 55% | 1020 mb | -295 ft | |||
| 02-5월 | 01:20 | VFR | 150° | 4 kt | 10000 meters | 13° | 55° | 4° | 39° | 54% | 1021 mb | -444 ft | |||
| 02-5월 | 00:20 | VFR | 140° | 3 kt | 10000 meters | 13° | 55° | 4° | 39° | 54% | 1021 mb | -444 ft | |||
| 01-5월 | 23:20 | VFR | 130° | 4 kt | 10000 meters | 15° | 59° | 4° | 39° | 48% | 1021 mb | -204 ft | |||
| 01-5월 | 22:20 | VFR | 100° | 3 kt | 10000 meters | 14° | 57° | 4° | 39° | 51% | 1022 mb | -354 ft | |||
| 01-5월 | 21:20 | VFR | 140° | 2 kt | 10000 meters | 17° | 62° | 4° | 39° | 42% | 1022 mb | 6 ft | |||
| 01-5월 | 20:20 | VFR | 140° | 6 kt | 10000 meters | 21° | 69° | 3° | 37° | 30% | 1022 mb | 486 ft | |||
| 01-5월 | 19:20 | VFR | 150° | 8 kt | 10000 meters | 22° | 71° | 2° | 35° | 27% | 1022 mb | 606 ft |
로그인
| 귀하의 브라우저는 지원되지 않습니다.. 브라우저를 업그레이드하세요 |
